Regional Weather Roundup
Issued by NWS

Home | Current Version | Previous Version | Text Only | Print | Product List | Glossary On
Versions: 1 2 3 4 5 6 7 8 9 10 11 12 13 14 15 16 17 18 19 20 21 22 23 24 25 26 27 28 29 30 31 32 33 34 35 36 37 38 39 40 41 42 43 44 45 46 47 48 49 50
000
ASUS43 KTOP 240108
RWRKS

WEATHER ROUNDUP FOR KANSAS
NATIONAL WEATHER SERVICE GOODLAND KS
800 PM CDT FRI JUN 23 2017

NOTE:  "FAIR" INDICATES FEW OR NO CLOUDS BELOW 12,000 FEET WITH NO
SIGNIFICANT WEATHER AND/OR OBSTRUCTIONS TO VISIBILITY.

KSZ001>006-013>018-027>032-041>047-240200-
NORTHWEST KANSAS

CITY           SKY/WX    TMP DP  RH WIND       PRES   REMARKS
GOODLAND       MOSUNNY   68  50  52 W6        30.16R
HAYS           CLOUDY    77  50  38 W3        30.08R
HILL CITY      PTSUNNY   77  48  35 N6        30.09R
RUSSELL        CLOUDY    78  47  33 NW6       30.06R
$$

KSZ061>065-074>080-084>089-240200-
SOUTHWEST KANSAS

CITY           SKY/WX    TMP DP  RH WIND       PRES   REMARKS
DODGE CITY     CLOUDY    71  47  42 N10       30.12R
ELKHART          N/A     70  43  37 NE8         N/A
GARDEN CITY    CLOUDY    73  47  39 NE9       30.13S
GREAT BEND     CLOUDY    75  50  41 NW7       30.08R
LIBERAL        MOSUNNY   73  49  42 N15       30.13R
PRATT          CLOUDY    71  46  40 N8        30.07S
$$

KSZ066>073-081>083-090>101-240200-
SOUTHEAST KANSAS

CITY           SKY/WX    TMP DP  RH WIND       PRES   REMARKS
CHANUTE        CLEAR     77  52  41 N7        30.00R
COFFEYVILLE    CLEAR     79  57  46 N7        29.97R
HUTCHINSON     PTCLDY    74  51  44 CALM      30.04R
MEDICINE LODGE   N/A     74  48  39 N7        30.05R
NEWTON         CLOUDY    76  47  35 N13       30.05R
PARSONS        CLEAR     79  58  48 N6        30.00R
WICHITA INTL   MOCLDY    78  48  34 N10       30.02R
WICHITA JABRA  PTCLDY    75  51  43 N7        30.03R
WICHITA MCCONL CLOUDY    77  49  37 NE8       30.03R
WINFIELD       PTCLDY    77  53  43 N10       30.03R
$$

KSZ007>012-019>026-033>040-048>060-102>105-240200-
NORTHEAST KANSAS

CITY           SKY/WX    TMP DP  RH WIND       PRES   REMARKS
CONCORDIA      CLEAR     77  47  34 N12       30.05R
EMPORIA        CLEAR     76  50  40 N9        30.02R
LAWRENCE       CLEAR     75  57  53 N7        30.01R
MANHATTAN      CLEAR     77  53  43 N5        30.02R
MARYSVILLE     CLEAR     73  50  43 N8        30.04R
OLATHE IND     CLEAR     73  55  53 N9        30.02R
OLATHE EXE     CLEAR     74  54  49 N9G20     30.01R
SALINA         CLEAR     81  47  30 N13       30.04R
TOPEKA BILLARD CLEAR     75  58  55 N6        30.01R
TOPEKA FORBES  CLEAR     77  54  44 N9        30.02R
$$




USA.gov is the U.S. government's official web portal to all federal, state and local government web resources and services.